Location: Fall River State Park
(37.6544°N, 96.0972°W)
Time: 17:17:58
(UTC-05:00)

OTV 5 (USA 277) - Visible Passes

Search period start: 22 September 2018 00:00
Search period end: 02 October 2018 00:00
Orbit: 387 x 394 km, 54.5° (Epoch: 08 September)

Date Brightness Start Highest point End Pass type
(mag) Time Alt. Az. Time Alt. Az. Time Alt. Az.
24 Sep ? 06:29:54 10° S 06:32:20 20° SE 06:34:49 10° ENE visible
26 Sep ? 06:12:24 10° SSW 06:15:25 43° SE 06:18:29 10° ENE visible
27 Sep ? 05:18:55 17° SE 05:19:16 18° SE 05:21:29 10° E visible
27 Sep ? 06:52:03 10° WSW 06:54:59 33° NW 06:57:56 10° NNE visible
28 Sep ? 05:57:42 45° SW 05:58:34 81° NW 06:01:47 10° NE visible
29 Sep ? 05:03:56 21° ENE 05:03:56 21° ENE 05:05:17 10° ENE visible
29 Sep ? 06:36:21 12° WNW 06:38:20 19° NNW 06:40:44 10° NNE visible
30 Sep ? 05:42:28 33° N 05:42:28 33° N 05:44:50 10° NNE visible
01 Oct ? 04:48:30 11° NE 04:48:30 11° NE 04:48:38 10° NE visible
01 Oct ? 06:20:53 11° NW 06:21:45 12° NNW 06:23:09 10° N visible
